User: anonymous   Login
Location: *
(34.8620°S, 39.3380°E)
Time: 06:58:22
(UTC+00:00)
Language:

CZ-2C R/B - Orbit

View from above orbital plane
View from above orbital plane
View from above satellite
View from above satellite

Ground track
Ground track

The orbit data is extracted from the following two-line orbital elements,

1 31114U 07010B   21292.75198396 -.00000070  00000-0 -13974-4 0  9999
2 31114  98.2317 117.7293 0058595 280.4156  79.0422 14.19375982752412
Epoch (UTC): 19 October 2021 18:02:51
Eccentricity: 0.0058595
inclination: 98.2317°
perigee height: 785 km
apogee height: 869 km
right ascension of ascending node: 117.7293°
argument of perigee: 280.4156°
revolutions per day: 14.19375982
mean anomaly at epoch: 79.0422°
orbit number at epoch: 75241

The dashed part of the orbit path shows where the satellite is in the earth's shadow,  

DLR